Nashville International Airport Nashville US
ICAO: KBNA
IATA: BNA
Category: Large
Scheduled Services: Yes

Elevation: 599 ft
TransAlt. 18000 ft.

Airport Communications:
APP:120.6
ATIS:135.1
CLNC DEL:126.05
DEP:118.4
GND:121.9
ANG MAINT:138.1
ANG OPS:32.29
RDO:122.2
TWR:118.6
UNICOM:122.95

KBNA Zoom In..

Runways:

(A) RW 02C length 8001 ft width 150 ft
ILS 110.75 / hdg 21

(B) RW 02L length 7703 ft width 150 ft
ILS 109.90 / hdg 21

(C) RW 02R length 8000 ft width 150 ft
ILS 111.75 / hdg 21

(D) RW 13 length 11030 ft width 150 ft
---- / hdg 136

(E) RW 20C length 8001 ft width 150 ft
---- / hdg 201

(F) RW 20L length 8000 ft width 150 ft
ILS 109.35 / hdg 201

(G) RW 20R length 7703 ft width 150 ft
ILS 111.30 / hdg 201

(H) RW 31 length 11030 ft width 150 ft
ILS 111.95 / hdg 316

Location; KBNA
Day. 20 / Time. 09.53 Zulu
* Altimeter: 30.36
* Temperature: 03° c. 37.4°f.
* Wind from: 000° Speed 00 kn.
Dewpoint: 00° c.
Visibility: 10 Statute Miles.
Clouds: Clear (automated report).

KBNA 200953Z 00000KT 10SM CLR 03/00 A3036 RMK AO2 SLP284 T00280000


Wind - Calm.

  YouTube Music Video
 
jpsmedia.com for Web Design  worldairports.se 2018   terms of use